THOR ABLESTAR DEB, 329

Orbit data source: Space-Track

THOR ABLESTAR DEB, 329 is space debris in LEO originally from a launch on Thu, 29 Jun 1961 UTC launched from the Air Force Eastern Test Range (AFETR). Debris objects in space refer to the collection of defunct objects orbiting the Earth. Examples of debris include non-operational satellites, rocket bodies, and fragments generated from explosions, collisions, or faulty payload assembly.

Loading next visibility...
Identifier
329, 1961-015DF
Orbit
LEO
Country
Flag of USUS
Related business
Manufacturer
Unknown
Mission
Spacecraft
Bus & Motor
Unknown
Mass
Unknown
Launch date (UTC)
1961-06-29 (65 years ago)
Launch vehicle
Unknown
Launch site
Air Force Eastern Test Range (AFETR)
Object type
Payload
Rocket body
Debris
Shape & HBR
Unknown shape, 0.1 m
Radar Cross Section
Small (<0.1 m²)

Expand to show TLE details & history
Last TLE update: 21 hours ago

TLE from 21 hours ago
0 THOR ABLESTAR DEB
1   329U 61015DF  26036.20894679  .00000133  00000-0  23810-3 0  9993
2   329  66.7826 323.7969 0108621  82.3098  65.2878 13.66083503211980
Epoch: 2026-02-05T05:00Z
TLE epoch observation values (Epoch: 2026-02-05T05:00:53.002Z)
Latitude
28.54673°
Longitude
-80.21187°
Altitude
983.494 km
Speed
7.379 km/s
True Right ascension
08h 41m 29s
True Declination
28° 24' 25"
Sunlit
Object was in full shadow at epoch
Visualization orbit readout
Latitude
Unknown
Longitude
Unknown
Altitude
Unknown
Speed
Unknown
Apparent Right ascension
Unknown
Apparent Declination
Unknown
Sunlit
N/A
Visualization observer readout
Local Sidereal Time
04:20:36
Azimuth
Unknown
Elevation
Unknown
Doppler factor
Unknown
Orbital elements
Apogee altitude
1,092.353 km
Perigee altitude
931.806 km
Semi-major axis
7,390.217 km
Eccentricity
0.01086
Inclination
66.7826°
RAAN
323.7969°
Arg. of periapsis
82.3098°
True anomaly
66.42489°
Mean anomaly
65.2878°
Eccentric anomaly
65.85571°
Mean motion
3.41631 °/min
Orbital period
105.38 mins
BSTAR
0.0002381
Loading maneuver chart data...
Computing Atmospheric mass density...

Documentation

Showing up to 5 results
|